Theta_e
321 315 310 309 314 315 317 317 316 314 316 314 314 317 317 328 330 330 330 332 337 354 355 353 353 353 353 350 348 346 344 344
313 310 314 313 315 317 316 316 317 316 311 317 322 320 322 327 327 326 326 327 340 343 342 346 351 351 350 347 346 342 340 342
312 313 315 317 318 317 314 315 314 315 312 314 322 325 325 325 325 324 325 327 329 342 341 343 346 346 344 342 341 340 340 339
309 310 315 318 318 316 315 315 315 313 313 315 325 324 325 325 325 326 326 329 330 339 341 340 336 334 334 335 335 335 336 336
312 311 312 315 319 315 314 314 314 316 311 317 320 323 326 325 326 326 327 326 328 329 335 335 335 331 328 330 331 332 333 333
312 310 311 317 317 319 315 314 318 317 310 312 322 325 325 324 323 324 325 325 327 328 326 329 331 334 329 330 331 331 332 332
310 310 313 318 316 319 319 316 316 316 316 319 323 323 322 322 321 322 324 325 327 325 329 332 332 333 330 334 333 332 331 331
314 315 314 316 316 317 316 315 314 315 318 319 320 321 319 320 320 321 322 324 324 326 332 334 331 333 333 332 333 332 331 331
314 315 316 315 315 318 315 312 316 313 316 319 319 320 320 319 320 321 324 325 324 330 334 334 332 331 331 332 331 331 330 331
314 315 316 314 317 314 315 315 317 317 316 318 318 319 319 319 320 321 323 323 328 332 334 336 334 331 331 331 332 330 331 334
315 316 317 317 314 314 314 317 317 317 317 317 318 319 321 321 322 324 323 324 330 334 336 336 335 333 333 332 330 332 331 332
316 315 316 313 314 313 315 316 314 316 317 316 316 319 322 322 323 324 322 327 331 333 335 335 334 336 334 336 333 333 331 330
314 314 314 315 310 311 315 317 315 314 315 317 319 320 320 323 324 324 323 329 330 332 332 334 336 335 336 337 338 334 334 334
313 314 314 312 305 314 317 316 315 315 316 317 319 320 321 323 326 325 325 325 329 330 331 334 335 335 335 337 337 337 333 332
308 315 313 311 307 314 317 316 315 315 316 317 318 320 322 324 326 325 325 326 327 331 331 334 336 335 337 338 339 338 334 332
306 312 313 310 309 314 316 315 315 316 317 318 317 319 322 325 327 325 325 329 328 331 334 334 334 334 338 337 337 338 332 328
310 312 310 310 310 312 316 315 314 315 316 318 319 321 323 325 326 325 325 329 329 328 333 332 331 331 337 337 332 334 335 330
310 312 311 310 309 312 313 313 315 315 316 317 319 319 321 325 326 325 325 327 328 328 331 333 335 335 334 335 334 331 334 334
306 310 312 309 306 308 313 314 315 315 317 319 320 319 321 323 325 325 323 327 328 328 332 336 338 338 337 337 336 335 334 332
307 306 301 309 298 306 310 310 312 314 316 318 320 321 322 323 324 324 323 328 329 330 333 335 337 334 334 334 332 337 335 336
Wind_Speed
11 14 14 10 8 11 7 1 7 4 1 4 9 4 4 9 5 4 3 6 7 11 9 11 12 11 11 10 10 11 11 13
10 19 8 5 12 10 12 6 6 4 6 6 7 4 3 7 4 3 5 1 14 10 5 7 9 11 11 10 11 12 14 14
17 17 9 3 10 10 9 6 3 4 5 1 8 4 5 4 3 4 5 6 4 8 3 4 7 7 8 7 9 11 13 14
15 5 9 4 5 7 10 8 3 4 6 2 13 7 5 4 3 3 4 3 4 8 7 5 3 1 4 6 8 10 12 13
17 18 13 6 6 10 11 11 7 4 7 2 7 7 5 4 3 2 0 3 3 6 2 12 9 6 1 6 10 11 13 14
16 14 12 9 0 12 7 8 5 3 6 8 7 9 7 7 6 6 7 5 5 6 7 6 9 9 4 6 10 11 13 15
19 16 10 10 13 5 4 10 7 4 6 6 6 9 8 7 6 5 4 5 6 6 7 8 9 8 5 12 11 10 11 11
15 14 12 16 17 17 6 10 9 8 7 4 7 9 10 9 8 4 4 5 6 4 6 8 8 7 8 7 4 8 8 9
17 15 14 16 17 9 9 10 10 3 7 14 12 10 11 9 2 6 5 5 7 4 5 7 7 6 6 2 4 5 7 7
16 18 15 13 10 9 8 10 4 5 4 8 12 11 11 8 3 3 4 5 5 4 4 5 6 7 7 5 5 7 6 8
21 16 15 14 10 12 12 7 4 4 7 10 11 11 8 5 2 2 3 5 5 5 5 5 5 6 6 4 7 6 7 4
17 17 16 11 16 5 11 2 3 9 11 9 9 12 9 7 5 3 1 3 5 6 5 5 5 7 5 5 8 7 3 4
18 18 16 12 17 16 12 9 9 8 11 13 13 11 11 9 6 3 3 1 4 5 4 4 8 8 6 6 6 6 6 5
22 23 13 9 19 14 12 11 11 13 14 12 12 11 11 8 6 4 3 2 3 4 6 6 8 6 5 5 5 5 4 4
19 11 13 16 19 19 6 11 13 13 13 11 11 12 10 9 9 5 4 3 3 4 6 7 8 5 4 5 4 2 2 2
16 14 11 16 19 19 16 15 16 17 12 11 13 15 13 11 9 6 4 4 2 4 5 7 9 1 3 3 3 2 2 2
12 6 14 11 16 20 19 15 17 18 12 11 13 13 13 12 9 7 5 5 3 3 4 5 7 6 3 4 2 1 2 6
15 14 10 14 19 21 20 21 17 16 12 10 13 14 15 13 11 8 6 4 3 1 3 4 5 4 4 3 5 4 4 3
17 16 11 12 23 22 15 10 13 11 6 9 14 16 16 15 12 9 7 6 4 1 3 4 3 1 3 2 1 2 5 5
16 15 13 14 15 15 16 9 10 13 11 10 14 16 16 15 13 10 8 7 5 3 1 4 7 4 3 3 4 2 3 5
Wind_Direction
246 245 272 345 16 359 13 138 236 233 95 6 60 87 23 74 147 188 216 188 149 160 200 224 237 244 250 263 268 275 274 265
254 280 299 353 331 339 312 167 238 314 301 128 66 120 87 119 187 238 256 224 125 133 171 236 253 257 261 274 281 286 284 278
261 260 308 338 311 338 297 280 226 141 310 109 136 108 136 165 219 263 304 346 58 119 132 267 278 284 295 318 303 292 285 284
272 300 251 271 1 311 288 298 149 264 308 28 116 164 169 180 192 333 347 3 308 132 161 138 115 66 332 322 302 294 289 284
282 288 304 3 30 290 313 305 316 63 305 75 163 157 160 180 181 214 235 228 288 298 253 196 200 177 217 304 299 296 293 286
275 282 284 279 311 271 279 312 26 339 278 341 124 144 177 209 191 203 195 256 318 268 297 302 296 181 204 279 288 293 293 285
269 286 303 306 278 280 154 279 211 264 283 47 131 168 200 212 217 231 266 259 284 317 332 311 292 285 205 239 237 270 276 269
287 304 304 302 295 298 236 249 230 216 237 202 194 197 218 214 235 216 282 338 319 324 316 302 284 284 277 285 321 300 297 295
285 290 292 312 290 302 288 273 304 280 241 179 206 212 229 244 277 348 345 308 351 324 293 297 309 314 289 340 329 268 270 257
278 271 273 279 308 299 278 275 344 322 302 190 212 217 225 237 215 238 351 322 333 317 296 290 307 310 312 335 296 242 237 231
260 258 261 274 275 272 292 309 295 254 238 233 220 224 214 230 190 293 299 342 320 330 305 296 311 295 313 292 271 291 266 240
258 253 256 236 264 175 271 68 287 252 249 238 230 215 191 202 213 233 321 309 330 312 306 314 299 289 265 275 264 259 266 277
255 254 251 236 255 241 253 195 244 252 236 239 215 208 200 193 196 229 256 283 319 265 302 281 242 262 286 281 265 292 315 316
249 226 223 215 256 259 214 240 250 249 231 235 220 208 196 178 185 192 254 285 302 323 324 334 311 303 284 287 281 288 289 300
248 179 222 207 260 281 217 277 267 271 264 229 208 203 191 182 183 191 210 244 314 346 316 332 307 289 295 306 279 257 237 252
251 215 193 255 253 257 247 247 264 263 237 231 209 195 187 194 180 179 199 207 254 307 321 335 289 190 357 327 280 242 168 242
276 280 250 259 273 282 289 277 268 268 233 227 205 189 182 187 181 179 199 213 232 345 326 334 305 345 23 353 31 193 244 245
260 270 273 283 286 284 288 271 278 267 233 210 194 186 176 182 186 187 187 188 188 298 354 325 11 355 352 354 30 36 34 5
260 275 256 282 267 262 264 267 262 253 239 205 193 186 179 182 187 182 187 176 157 90 44 5 2 275 48 330 251 295 347 59
267 273 264 269 292 293 275 272 266 221 204 223 181 181 180 182 183 184 174 164 150 122 77 102 1 24 1 340 326 25 11 346